Radiation Dose at Monitoring Post of Fukushima Daini Nuclear Power Station
Date,Time,MP-1(microSv/h),MP-2(microSv/h),MP-3(microSv/h),MP-4(microSv/h),MP-5(microSv/h),MP-6(microSv/h),MP-7(microSv/h),Wind Direction,Wind Velocity(m/s),Rain
2020/04/10,00:00,0.181,0.164,0.274,0.248,0.257,0.140,0.085,south-southwest,2.0,No
2020/04/10,00:10,0.180,0.164,0.273,0.249,0.259,0.140,0.084,south-southwest,2.2,No
2020/04/10,00:20,0.181,0.164,0.273,0.250,0.258,0.140,0.085,south-southwest,2.2,No
2020/04/10,00:30,0.181,0.164,0.273,0.249,0.259,0.140,0.086,south-southwest,2.0,No
2020/04/10,00:40,0.181,0.164,0.272,0.249,0.260,0.140,0.085,south-southwest,1.9,No
2020/04/10,00:50,0.181,0.164,0.273,0.249,0.258,0.140,0.086,south-southwest,2.4,No
2020/04/10,01:00,0.180,0.164,0.274,0.248,0.258,0.139,0.084,south-southwest,1.7,No
2020/04/10,01:10,0.182,0.164,0.273,0.249,0.258,0.140,0.085,south-southwest,2.9,No
2020/04/10,01:20,0.180,0.165,0.272,0.248,0.258,0.141,0.085,south-southwest,3.6,No
2020/04/10,01:30,0.182,0.165,0.272,0.250,0.259,0.140,0.085,south-southwest,3.3,No
2020/04/10,01:40,0.181,0.163,0.273,0.249,0.260,0.140,0.085,south-southwest,2.9,No
2020/04/10,01:50,0.181,0.165,0.273,0.249,0.259,0.140,0.085,south-southwest,3.3,No
2020/04/10,02:00,0.180,0.165,0.273,0.250,0.258,0.140,0.085,south,2.8,No
2020/04/10,02:10,0.180,0.165,0.273,0.250,0.258,0.140,0.085,south-southwest,2.5,No
2020/04/10,02:20,0.182,0.164,0.274,0.249,0.258,0.140,0.085,south-southwest,1.7,No
2020/04/10,02:30,0.181,0.165,0.273,0.249,0.261,0.139,0.085,southwest,1.7,No
2020/04/10,02:40,0.182,0.164,0.273,0.249,0.260,0.140,0.085,southwest,1.4,No
2020/04/10,02:50,0.181,0.165,0.274,0.249,0.258,0.141,0.085,south-southwest,1.9,No
2020/04/10,03:00,0.181,0.164,0.275,0.249,0.260,0.140,0.086,south-southwest,1.9,No
2020/04/10,03:10,0.181,0.164,0.273,0.250,0.258,0.140,0.085,southwest,2.1,No
2020/04/10,03:20,0.181,0.165,0.274,0.250,0.259,0.139,0.086,southwest,2.2,No
2020/04/10,03:30,0.181,0.165,0.274,0.250,0.259,0.140,0.085,southwest,2.7,No
2020/04/10,03:40,0.181,0.166,0.274,0.249,0.258,0.141,0.085,southwest,2.7,No
2020/04/10,03:50,0.181,0.165,0.273,0.250,0.258,0.140,0.085,southwest,2.6,No
2020/04/10,04:00,0.182,0.164,0.273,0.250,0.259,0.140,0.086,southwest,3.0,No
2020/04/10,04:10,0.182,0.165,0.274,0.250,0.258,0.139,0.085,southwest,3.0,No
2020/04/10,04:20,0.181,0.165,0.275,0.249,0.258,0.140,0.085,south-southwest,2.3,No
2020/04/10,04:30,0.182,0.164,0.273,0.250,0.258,0.141,0.086,southwest,3.3,No
2020/04/10,04:40,0.182,0.164,0.272,0.250,0.260,0.140,0.085,southwest,2.6,No
2020/04/10,04:50,0.182,0.164,0.273,0.249,0.258,0.140,0.085,south-southwest,2.3,No
2020/04/10,05:00,0.181,0.164,0.273,0.250,0.258,0.140,0.085,south-southwest,2.1,No
2020/04/10,05:10,0.181,0.166,0.273,0.249,0.258,0.141,0.085,south,1.8,No
2020/04/10,05:20,0.182,0.165,0.274,0.250,0.259,0.140,0.085,south-southeast,1.6,No
2020/04/10,05:30,0.182,0.165,0.272,0.250,0.259,0.140,0.085,south-southeast,1.5,No
2020/04/10,05:40,0.182,0.165,0.274,0.250,0.258,0.139,0.086,south-southeast,1.4,No
2020/04/10,05:50,0.182,0.165,0.274,0.250,0.261,0.141,0.086,-,CALM,No
2020/04/10,06:00,0.181,0.164,0.273,0.250,0.259,0.140,0.086,-,CALM,No
2020/04/10,06:10,0.181,0.164,0.274,0.247,0.257,0.140,0.085,northwest,2.2,No
2020/04/10,06:20,0.182,0.164,0.273,0.249,0.258,0.140,0.085,northwest,2.7,No
2020/04/10,06:30,0.181,0.165,0.274,0.250,0.259,0.140,0.086,north,1.1,No
2020/04/10,06:40,0.181,0.165,0.273,0.249,0.259,0.140,0.085,west,1.1,No
2020/04/10,06:50,0.182,0.164,0.272,0.247,0.259,0.140,0.085,west,4.6,No
2020/04/10,07:00,0.181,0.164,0.272,0.249,0.258,0.139,0.084,north,2.1,No
2020/04/10,07:10,0.181,0.165,0.273,0.249,0.257,0.140,0.085,west-northwest,4.3,No
2020/04/10,07:20,0.181,0.163,0.271,0.249,0.257,0.140,0.085,north-northwest,5.1,No
2020/04/10,07:30,0.180,0.163,0.272,0.248,0.259,0.140,0.085,north-northwest,5.0,No
2020/04/10,07:40,0.181,0.164,0.273,0.249,0.257,0.139,0.085,north-northwest,5.8,No
2020/04/10,07:50,0.181,0.163,0.272,0.249,0.257,0.140,0.084,north-northwest,4.8,No
2020/04/10,08:00,0.182,0.163,0.274,0.248,0.260,0.140,0.084,north-northwest,4.5,No
2020/04/10,08:10,0.181,0.164,0.271,0.248,0.258,0.139,0.085,northwest,3.1,No
2020/04/10,08:20,0.182,0.162,0.273,0.248,0.260,0.140,0.085,west,3.0,No
2020/04/10,08:30,0.181,0.163,0.271,0.248,0.258,0.140,0.084,south-southwest,1.8,No
2020/04/10,08:40,0.181,0.163,0.274,0.247,0.259,0.139,0.084,northwest,3.0,No
2020/04/10,08:50,0.180,0.164,0.272,0.248,0.258,0.139,0.085,west-northwest,5.3,No
2020/04/10,09:00,0.180,0.163,0.272,0.245,0.258,0.138,0.085,west-northwest,6.6,No
2020/04/10,09:10,0.180,0.163,0.273,0.247,0.260,0.140,0.084,northwest,6.3,No
2020/04/10,09:20,0.180,0.163,0.271,0.247,0.257,0.138,0.085,west-northwest,8.3,No
2020/04/10,09:30,0.181,0.163,0.273,0.248,0.259,0.140,0.084,west-northwest,7.4,No
2020/04/10,09:40,0.182,0.164,0.272,0.248,0.257,0.139,0.085,west-northwest,4.9,No
2020/04/10,09:50,0.179,0.163,0.274,0.247,0.259,0.140,0.086,west-northwest,6.2,No
2020/04/10,10:00,0.181,0.165,0.272,0.248,0.258,0.140,0.084,west,6.0,No
2020/04/10,10:10,0.180,0.163,0.273,0.247,0.257,0.139,0.086,west,8.1,No
2020/04/10,10:20,0.181,0.164,0.273,0.249,0.259,0.140,0.084,west-southwest,5.1,No
2020/04/10,10:30,0.180,0.163,0.272,0.246,0.257,0.139,0.085,west-northwest,6.0,No
2020/04/10,10:40,0.181,0.163,0.272,0.249,0.259,0.140,0.085,west-northwest,10.3,No
2020/04/10,10:50,0.182,0.163,0.271,0.247,0.258,0.138,0.084,west,9.6,No
2020/04/10,11:00,0.180,0.163,0.274,0.248,0.260,0.139,0.085,northwest,9.3,Yes
2020/04/10,11:10,0.181,0.164,0.273,0.249,0.257,0.139,0.085,northwest,7.9,No
2020/04/10,11:20,0.181,0.163,0.275,0.248,0.260,0.140,0.084,north-northwest,5.6,No
2020/04/10,11:30,0.181,0.164,0.273,0.250,0.257,0.139,0.084,north-northwest,5.5,No
2020/04/10,11:40,0.181,0.165,0.275,0.248,0.260,0.140,0.085,west,8.3,No
2020/04/10,11:50,0.180,0.165,0.274,0.249,0.257,0.139,0.084,west-northwest,12.9,No
2020/04/10,12:00,0.182,0.164,0.273,0.248,0.260,0.140,0.085,west,12.5,No
2020/04/10,12:10,0.180,0.164,0.274,0.249,0.259,0.139,0.084,west-northwest,10.1,No
2020/04/10,12:20,0.182,0.164,0.273,0.248,0.257,0.140,0.084,west-northwest,9.8,No
2020/04/10,12:30,0.181,0.163,0.275,0.250,0.258,0.140,0.084,west-northwest,7.8,Yes
2020/04/10,12:40,0.182,0.163,0.274,0.247,0.256,0.139,0.084,west,7.5,No
2020/04/10,12:50,0.181,0.165,0.274,0.249,0.261,0.140,0.084,west-northwest,8.2,No
2020/04/10,13:00,0.182,0.164,0.272,0.249,0.258,0.139,0.086,west-northwest,7.8,Yes
2020/04/10,13:10,0.181,0.165,0.275,0.249,0.257,0.140,0.085,northwest,7.3,Yes
2020/04/10,13:20,0.182,0.165,0.273,0.251,0.260,0.139,0.085,northwest,5.8,Yes
2020/04/10,13:30,0.183,0.165,0.274,0.248,0.257,0.140,0.085,west-northwest,8.5,Yes
2020/04/10,13:40,0.183,0.165,0.276,0.250,0.261,0.139,0.084,west-northwest,11.8,No
2020/04/10,13:50,0.182,0.164,0.274,0.251,0.259,0.141,0.086,west-northwest,9.8,No
2020/04/10,14:00,0.181,0.165,0.276,0.251,0.260,0.140,0.086,northwest,6.5,No
2020/04/10,14:10,0.183,0.165,0.275,0.250,0.261,0.140,0.084,northwest,8.5,No
2020/04/10,14:20,0.182,0.165,0.274,0.250,0.260,0.140,0.085,west-northwest,8.1,No
2020/04/10,14:30,0.183,0.165,0.275,0.250,0.258,0.141,0.085,west-northwest,8.3,Yes
2020/04/10,14:40,0.181,0.165,0.274,0.250,0.260,0.141,0.085,northwest,7.6,No
2020/04/10,14:50,0.182,0.165,0.276,0.251,0.258,0.140,0.085,northwest,7.9,No
2020/04/10,15:00,0.182,0.166,0.276,0.249,0.260,0.140,0.086,northwest,7.1,No
2020/04/10,15:10,0.182,0.165,0.275,0.251,0.259,0.140,0.085,northwest,9.5,No
2020/04/10,15:20,0.181,0.166,0.276,0.249,0.260,0.139,0.085,west-northwest,7.9,No
2020/04/10,15:30,0.182,0.165,0.276,0.249,0.257,0.140,0.085,west-northwest,7.3,No
2020/04/10,15:40,0.183,0.164,0.276,0.251,0.260,0.140,0.086,west-northwest,5.8,No
2020/04/10,15:50,0.181,0.166,0.275,0.250,0.257,0.139,0.086,west-northwest,6.8,No
2020/04/10,16:00,0.183,0.165,0.277,0.252,0.259,0.141,0.085,west,6.5,No
2020/04/10,16:10,0.181,0.166,0.275,0.251,0.258,0.140,0.085,west-northwest,6.2,No
2020/04/10,16:20,0.182,0.166,0.275,0.251,0.260,0.140,0.085,west-northwest,7.1,No
2020/04/10,16:30,0.182,0.166,0.276,0.251,0.260,0.140,0.084,west-northwest,6.0,No
2020/04/10,16:40,0.181,0.165,0.275,0.251,0.260,0.141,0.086,west-northwest,5.2,No
2020/04/10,16:50,0.182,0.165,0.273,0.251,0.258,0.141,0.086,west,5.3,No
2020/04/10,17:00,0.183,0.164,0.275,0.250,0.260,0.139,0.085,west,4.2,No
2020/04/10,17:10,0.182,0.165,0.276,0.252,0.258,0.142,0.085,west-northwest,3.1,No
2020/04/10,17:20,0.182,0.166,0.275,0.250,0.262,0.140,0.084,west,2.7,No
2020/04/10,17:30,0.183,0.165,0.274,0.249,0.258,0.141,0.086,west,1.7,Yes
2020/04/10,17:40,0.180,0.165,0.275,0.252,0.261,0.141,0.085,northwest,2.6,Yes
2020/04/10,17:50,0.183,0.165,0.274,0.249,0.261,0.140,0.085,northwest,6.1,Yes
2020/04/10,18:00,0.181,0.164,0.273,0.250,0.261,0.140,0.085,northwest,6.8,No
2020/04/10,18:10,0.181,0.165,0.275,0.251,0.261,0.140,0.085,northwest,6.4,No
2020/04/10,18:20,0.182,0.164,0.275,0.250,0.260,0.141,0.084,northwest,6.3,No
2020/04/10,18:30,0.183,0.165,0.275,0.250,0.261,0.140,0.085,northwest,7.1,No
2020/04/10,18:40,0.182,0.165,0.276,0.250,0.259,0.140,0.085,west-northwest,6.4,No
2020/04/10,18:50,0.183,0.165,0.275,0.251,0.260,0.140,0.085,west-northwest,5.8,No
2020/04/10,19:00,0.182,0.166,0.274,0.249,0.259,0.141,0.084,west-northwest,6.2,No
2020/04/10,19:10,0.182,0.165,0.274,0.251,0.259,0.141,0.085,northwest,3.5,No
2020/04/10,19:20,0.181,0.165,0.276,0.250,0.259,0.140,0.084,northwest,2.6,No
2020/04/10,19:30,0.182,0.166,0.276,0.250,0.258,0.140,0.085,northwest,2.7,No
2020/04/10,19:40,0.181,0.165,0.275,0.250,0.260,0.140,0.084,northwest,3.3,No
2020/04/10,19:50,0.182,0.165,0.275,0.250,0.259,0.141,0.085,northwest,3.2,No
2020/04/10,20:00,0.183,0.164,0.275,0.250,0.259,0.140,0.085,west-northwest,3.1,No
2020/04/10,20:10,0.182,0.164,0.274,0.250,0.258,0.140,0.084,northwest,2.9,No
2020/04/10,20:20,0.181,0.165,0.274,0.251,0.259,0.141,0.085,northwest,2.6,No
2020/04/10,20:30,0.182,0.164,0.275,0.250,0.258,0.140,0.085,west-northwest,3.6,No
2020/04/10,20:40,0.181,0.164,0.273,0.250,0.258,0.140,0.085,west-northwest,4.0,No
2020/04/10,20:50,0.183,0.166,0.275,0.251,0.259,0.140,0.084,west-northwest,5.2,No
2020/04/10,21:00,0.182,0.165,0.275,0.250,0.259,0.140,0.085,west-northwest,4.4,No
2020/04/10,21:10,0.181,0.164,0.275,0.249,0.259,0.140,0.084,northwest,3.5,No
2020/04/10,21:20,0.182,0.164,0.275,0.251,0.258,0.140,0.085,northwest,2.9,No
2020/04/10,21:30,0.182,0.164,0.276,0.251,0.259,0.140,0.086,northwest,3.1,No
2020/04/10,21:40,0.182,0.165,0.274,0.249,0.260,0.140,0.085,northwest,4.1,No
2020/04/10,21:50,0.182,0.165,0.275,0.250,0.259,0.140,0.085,northwest,3.5,No
2020/04/10,22:00,0.181,0.165,0.276,0.249,0.260,0.140,0.086,northwest,3.8,No
2020/04/10,22:10,0.181,0.165,0.275,0.249,0.259,0.139,0.085,northwest,4.7,No
2020/04/10,22:20,0.181,0.164,0.275,0.250,0.259,0.140,0.085,northwest,6.1,No
2020/04/10,22:30,0.182,0.165,0.274,0.251,0.259,0.140,0.085,west-northwest,6.8,No
2020/04/10,22:40,0.182,0.163,0.276,0.250,0.258,0.141,0.086,west-northwest,6.4,No
2020/04/10,22:50,0.182,0.166,0.275,0.251,0.260,0.140,0.085,west-northwest,6.9,No
2020/04/10,23:00,0.183,0.164,0.274,0.250,0.259,0.140,0.085,west-northwest,5.9,No
2020/04/10,23:10,0.182,0.163,0.274,0.250,0.259,0.140,0.085,west-northwest,6.0,No
2020/04/10,23:20,0.181,0.165,0.275,0.251,0.259,0.141,0.085,west-northwest,6.0,No
2020/04/10,23:30,0.182,0.165,0.275,0.249,0.259,0.141,0.086,northwest,5.3,No
2020/04/10,23:40,0.181,0.165,0.274,0.250,0.257,0.140,0.085,northwest,4.2,No
2020/04/10,23:50,0.182,0.164,0.275,0.251,0.258,0.140,0.085,northwest,3.8,No
